When you browse on this site, cookies collect data to enhance your experience and personalize the content and advertising you see.
Visit our Privacy Policy to learn more. By continuing to use the site, you agree to this use of cookies and data.
  • en Suisse
  • Liste des pays
  • À 7 jours
  • Température de l'eau
  • Carte météo
  • Widgets météo
  • user-avatar
    Se connecter

    Météo par heure à Achtarak

    Ce jour, 18 Octobre, Vendredi

    Heure Température Précipitation Vent Pression Humidité
    00:00 +14°C° 0 mm 1 m/s 661 mmHg 26%
    01:00 +14°C° 0 mm 1 m/s 661 mmHg 26%
    02:00 +14°C° 0 mm 1 m/s 661 mmHg 27%
    03:00 +13°C° 0 mm 1 m/s 661 mmHg 28%
    04:00 +13°C° 0 mm 1 m/s 661 mmHg 29%
    05:00 +13°C° 0 mm 1 m/s 661 mmHg 29%
    06:00 +12°C° 0 mm 1 m/s 661 mmHg 30%
    07:00 +15°C° 0 mm 1 m/s 661 mmHg 26%
    08:00 +19°C° 0 mm 1 m/s 662 mmHg 22%
    09:00 +21°C° 0 mm 1 m/s 662 mmHg 18%
    10:00 +22°C° 0 mm 1 m/s 662 mmHg 18%
    11:00 +23°C° 0 mm 2 m/s 662 mmHg 18%
    12:00 +25°C° 0 mm 2 m/s 662 mmHg 18%
    13:00 +25°C° 0 mm 2 m/s 662 mmHg 19%
    14:00 +25°C° 0 mm 2 m/s 662 mmHg 20%
    15:00 +25°C° 0 mm 2 m/s 661 mmHg 21%
    16:00 +23°C° 0 mm 2 m/s 661 mmHg 25%
    17:00 +20°C° 0 mm 2 m/s 660 mmHg 29%
    18:00 +19°C° 0 mm 1 m/s 660 mmHg 32%
    19:00 +19°C° 0 mm 1 m/s 660 mmHg 35%
    20:00 +18°C° 0 mm 1 m/s 660 mmHg 38%
    21:00 +16°C° 0 mm 1 m/s 660 mmHg 40%
    22:00 +16°C° 0 mm 1 m/s 660 mmHg 42%
    23:00 +15°C° 0 mm 1 m/s 660 mmHg 44%

    Demain, 19 Octobre, Samedi

    Heure Température Précipitation Vent Pression Humidité
    00:00 +15°C° 0 mm 1 m/s 660 mmHg 46%
    01:00 +14°C° 0 mm 1 m/s 660 mmHg 48%
    02:00 +14°C° 0 mm 1 m/s 659 mmHg 50%
    03:00 +14°C° 0 mm 1 m/s 659 mmHg 52%
    04:00 +14°C° 0 mm 1 m/s 659 mmHg 53%
    05:00 +13°C° 0 mm 1 m/s 659 mmHg 55%
    06:00 +13°C° 0 mm 1 m/s 660 mmHg 57%
    07:00 +15°C° 0 mm 1 m/s 660 mmHg 50%
    08:00 +19°C° 0 mm 1 m/s 661 mmHg 42%
    09:00 +21°C° 0 mm 1 m/s 661 mmHg 35%
    10:00 +22°C° 0 mm 1 m/s 661 mmHg 34%
    11:00 +23°C° 0 mm 2 m/s 661 mmHg 32%
    12:00 +24°C° 0 mm 2 m/s 662 mmHg 30%
    13:00 +24°C° 0.1 mm 2 m/s 661 mmHg 29%
    14:00 +25°C° 0.1 mm 1 m/s 661 mmHg 28%
    15:00 +25°C° 0.1 mm 1 m/s 661 mmHg 26%
    16:00 +23°C° 0 mm 1 m/s 660 mmHg 30%
    17:00 +21°C° 0 mm 1 m/s 660 mmHg 34%
    18:00 +17°C° 0 mm 0 m/s 659 mmHg 39%
    19:00 +18°C° 0 mm 1 m/s 660 mmHg 40%
    20:00 +18°C° 0 mm 1 m/s 660 mmHg 42%
    21:00 +16°C° 0 mm 2 m/s 660 mmHg 43%
    22:00 +16°C° 0 mm 2 m/s 660 mmHg 46%
    23:00 +16°C° 0 mm 2 m/s 660 mmHg 48%

    Après-demain, 20 Octobre, Dimanche

    Heure Température Précipitation Vent Pression Humidité
    00:00 +15°C° 0 mm 2 m/s 660 mmHg 51%
    01:00 +15°C° 0 mm 2 m/s 660 mmHg 52%
    02:00 +15°C° 0 mm 2 m/s 660 mmHg 53%
    03:00 +15°C° 0 mm 1 m/s 660 mmHg 54%
    04:00 +14°C° 0 mm 1 m/s 660 mmHg 57%
    05:00 +13°C° 0 mm 1 m/s 660 mmHg 60%
    06:00 +13°C° 0 mm 1 m/s 660 mmHg 62%
    07:00 +15°C° 0 mm 1 m/s 661 mmHg 55%
    08:00 +18°C° 0 mm 1 m/s 661 mmHg 47%
    09:00 +20°C° 0 mm 1 m/s 662 mmHg 40%
    10:00 +22°C° 0.1 mm 1 m/s 662 mmHg 37%
    11:00 +23°C° 0.1 mm 2 m/s 662 mmHg 34%
    12:00 +24°C° 0.1 mm 2 m/s 662 mmHg 32%
    13:00 +24°C° 0.2 mm 2 m/s 662 mmHg 31%
    14:00 +24°C° 0.2 mm 2 m/s 661 mmHg 30%
    15:00 +25°C° 0.2 mm 1 m/s 661 mmHg 29%
    16:00 +22°C° 0.1 mm 1 m/s 661 mmHg 35%
    17:00 +20°C° 0.1 mm 1 m/s 661 mmHg 41%
    18:00 +17°C° 0.1 mm 2 m/s 660 mmHg 47%
    19:00 +17°C° 0 mm 2 m/s 661 mmHg 50%
    20:00 +17°C° 0 mm 2 m/s 661 mmHg 52%
    21:00 +16°C° 0 mm 2 m/s 661 mmHg 54%
    22:00 +16°C° 0 mm 2 m/s 661 mmHg 56%
    23:00 +15°C° 0 mm 2 m/s 661 mmHg 59%

    21 Octobre, Lundi

    Heure Température Précipitation Vent Pression Humidité
    00:00 +15°C° 0 mm 2 m/s 661 mmHg 61%
    01:00 +14°C° 0 mm 2 m/s 661 mmHg 63%
    02:00 +14°C° 0 mm 2 m/s 661 mmHg 65%
    03:00 +14°C° 0 mm 2 m/s 661 mmHg 67%
    04:00 +13°C° 0 mm 2 m/s 661 mmHg 68%
    05:00 +13°C° 0 mm 2 m/s 661 mmHg 69%
    06:00 +13°C° 0 mm 2 m/s 661 mmHg 70%
    07:00 +15°C° 0 mm 2 m/s 661 mmHg 64%
    08:00 +16°C° 0 mm 1 m/s 662 mmHg 58%
    09:00 +19°C° 0 mm 1 m/s 662 mmHg 52%
    10:00 +20°C° 0.1 mm 1 m/s 662 mmHg 49%
    11:00 +20°C° 0.1 mm 2 m/s 662 mmHg 46%
    12:00 +20°C° 0.1 mm 2 m/s 662 mmHg 43%
    13:00 +21°C° 0.2 mm 2 m/s 662 mmHg 42%
    14:00 +21°C° 0.2 mm 2 m/s 661 mmHg 41%
    15:00 +21°C° 0.2 mm 2 m/s 661 mmHg 40%
    16:00 +20°C° 0.1 mm 2 m/s 661 mmHg 47%
    17:00 +18°C° 0.1 mm 2 m/s 661 mmHg 54%
    18:00 +16°C° 0.1 mm 2 m/s 660 mmHg 61%
    19:00 +16°C° 0 mm 2 m/s 660 mmHg 62%
    20:00 +15°C° 0 mm 2 m/s 660 mmHg 63%
    21:00 +15°C° 0 mm 2 m/s 660 mmHg 64%
    22:00 +14°C° 0 mm 2 m/s 660 mmHg 66%
    23:00 +13°C° 0 mm 3 m/s 660 mmHg 68%

    22 Octobre, Mardi

    Heure Température Précipitation Vent Pression Humidité
    00:00 +12°C° 0 mm 3 m/s 660 mmHg 69%
    01:00 +13°C° 0 mm 2 m/s 660 mmHg 71%
    02:00 +12°C° 0 mm 2 m/s 660 mmHg 73%
    03:00 +12°C° 0 mm 2 m/s 660 mmHg 75%
    04:00 +12°C° 0 mm 2 m/s 660 mmHg 76%
    05:00 +11°C° 0 mm 1 m/s 660 mmHg 78%
    06:00 +11°C° 0 mm 1 m/s 660 mmHg 79%
    07:00 +13°C° 0 mm 1 m/s 660 mmHg 71%
    08:00 +14°C° 0 mm 1 m/s 661 mmHg 64%
    09:00 +16°C° 0 mm 1 m/s 661 mmHg 56%
    10:00 +18°C° 0 mm 1 m/s 661 mmHg 52%
    11:00 +18°C° 0 mm 2 m/s 661 mmHg 48%
    12:00 +19°C° 0 mm 2 m/s 661 mmHg 44%
    13:00 +20°C° 0.1 mm 2 m/s 661 mmHg 43%
    14:00 +20°C° 0.1 mm 2 m/s 661 mmHg 42%
    15:00 +20°C° 0.1 mm 2 m/s 661 mmHg 40%
    16:00 +19°C° 0 mm 1 m/s 660 mmHg 44%
    17:00 +18°C° 0 mm 1 m/s 660 mmHg 48%
    18:00 +15°C° 0 mm 1 m/s 660 mmHg 52%
    19:00 +15°C° 0 mm 1 m/s 660 mmHg 55%
    20:00 +14°C° 0 mm 2 m/s 660 mmHg 57%
    21:00 +14°C° 0 mm 2 m/s 660 mmHg 59%
    22:00 +13°C° 0 mm 2 m/s 660 mmHg 61%
    23:00 +13°C° 0 mm 2 m/s 660 mmHg 63%

    23 Octobre, Mercredi

    Heure Température Précipitation Vent Pression Humidité
    00:00 +12°C° 0 mm 1 m/s 660 mmHg 64%
    01:00 +12°C° 0 mm 1 m/s 659 mmHg 66%
    02:00 +11°C° 0 mm 1 m/s 659 mmHg 68%
    03:00 +11°C° 0 mm 1 m/s 659 mmHg 70%
    04:00 +11°C° 0 mm 1 m/s 659 mmHg 71%
    05:00 +10°C° 0 mm 1 m/s 659 mmHg 71%
    06:00 +10°C° 0 mm 1 m/s 659 mmHg 72%
    07:00 +12°C° 0 mm 1 m/s 659 mmHg 64%
    08:00 +14°C° 0 mm 1 m/s 660 mmHg 56%
    09:00 +16°C° 0 mm 1 m/s 661 mmHg 48%
    10:00 +18°C° 0 mm 1 m/s 661 mmHg 45%
    11:00 +19°C° 0 mm 1 m/s 661 mmHg 41%
    12:00 +20°C° 0 mm 2 m/s 661 mmHg 38%
    13:00 +20°C° 0 mm 2 m/s 661 mmHg 37%
    14:00 +20°C° 0 mm 2 m/s 660 mmHg 36%
    15:00 +20°C° 0 mm 2 m/s 660 mmHg 35%
    16:00 +20°C° 0 mm 1 m/s 660 mmHg 40%
    17:00 +18°C° 0 mm 1 m/s 659 mmHg 45%
    18:00 +14°C° 0 mm 0 m/s 659 mmHg 50%
    19:00 +14°C° 0 mm 1 m/s 659 mmHg 52%
    20:00 +14°C° 0 mm 1 m/s 660 mmHg 54%
    21:00 +14°C° 0 mm 1 m/s 660 mmHg 56%
    22:00 +14°C° 0 mm 1 m/s 660 mmHg 57%
    23:00 +13°C° 0 mm 1 m/s 660 mmHg 58%
    Voir plus